Location: Lawrence Hall of Science
(37.8785°N, 122.2415°W)
Time: 13:38:38
(UTC-07:00)

Daily predictions for brighter satellites

Satellite Brightness Start Highest point End
(mag) Time Altitude Azimuth Time Altitude Azimuth Time Altitude Azimuth
CENTAUR R/B 3.7 20:40:35 10° NNW 20:48:03 44° NE 20:55:58 10° ESE
Cosmos 292 Rocket 3.8 20:43:33 10° S 20:48:20 68° ESE 20:53:08 10° NNE
Cosmos 1939 Rocket 3.8 20:45:04 10° SE 20:48:29 30° ENE 20:51:53 10° N
Helios 1B rocket 2.9 20:44:43 10° NNE 20:48:38 40° E 20:52:31 10° S
NOSS 3-2 (A) 4.5 20:41:46 10° NW 20:49:21 66° WSW 20:57:27 10° SSE
Cosmos 1455 Rocket 3.4 20:48:33 10° N 20:52:47 47° E 20:56:58 10° SSE
Spot 2 Rocket 3.7 20:48:44 10° S 20:53:46 75° WSW 20:58:49 10° NNW
COSMOS 2406 3.8 20:51:15 10° S 20:56:26 36° ESE 21:01:36 10° NE
Cosmos 1812 3.8 20:53:47 10° SSW 20:57:33 50° W 21:01:20 10° N
COSMOS 2455 2.9 20:53:16 10° NNW 20:59:17 70° ENE 21:05:15 10° SE
NOSS 2-2 (C) 3.5 20:55:35 10° SSW 20:59:27 52° ESE 21:03:41 10° NE
Cosmos 1680 Rocket 4.2 20:57:26 10° SSE 21:02:02 32° E 21:06:39 10° NE
Cosmos 1743 3.7 21:01:03 10° NNE 21:04:32 31° ENE 21:07:47 11° SE
CZ-2D R/B 4.3 21:01:27 10° S 21:05:08 46° W 21:08:50 10° NNW
Meteor 1-12 Rocket 4.4 20:59:36 10° N 21:05:40 81° E 21:11:38 10° S
ASTRO E2 3.6 21:06:37 10° WSW 21:10:12 32° S 21:13:07 14° ESE
Tiangong 2 1.5 21:11:17 10° SW 21:14:16 40° SSE 21:17:17 10° E
Spot 1 4.1 21:10:24 10° SSE 21:15:00 79° ENE 21:19:23 10° N
Iridium 4 Rocket 4.0 21:10:41 10° N 21:15:38 64° W 21:21:03 10° S
Envisat 3.0 21:10:41 10° SSE 21:15:45 87° ENE 21:20:52 10° NNW
ASTEX 1 4.1 21:16:01 13° SE 21:20:02 37° ENE 21:24:32 10° NNE
Cosmos 1709 Rocket 4.5 21:16:39 10° NNW 21:22:50 62° W 21:28:54 10° S
USA 186 3.7 21:21:51 10° SSW 21:24:43 29° W 21:27:33 10° NW
Okean 1-7 Rocket 4.5 21:23:39 15° SE 21:26:32 30° E 21:30:26 10° NNE
ISS -3.2 21:24:23 10° SSW 21:27:24 35° SE 21:30:27 10° ENE
Cosmos 1238 Rocket 4.4 21:25:38 10° SSE 21:31:58 49° E 21:38:19 10° NNE
Cosmos 1666 3.0 21:31:14 10° N 21:34:51 47° E 21:36:53 23° SE
Aureole 3 Rocket 3.8 21:28:15 10° S 21:35:21 75° E 21:40:21 10° NNE
Aureole 1 Rocket 2.4 21:33:43 10° S 21:37:11 51° ESE 21:40:11 10° NNE
CZ-4B DEB 3.3 21:36:22 13° S 21:38:51 51° W 21:41:47 10° NNW
Cosmos 1437 4.0 21:36:46 10° SSW 21:39:50 42° WNW 21:42:56 10° N
Meteor 2-4 Rocket 3.7 21:37:49 10° S 21:43:20 66° E 21:49:03 10° NNE
OAO 2 Rocket 3.3 21:40:40 10° WSW 21:45:32 59° S 21:48:58 19° E
DNEPR-1 R/B 4.0 21:42:31 10° NNW 21:46:40 49° NE 21:48:59 25° ESE
Cosmos 923 Rocket 4.4 21:42:12 10° SSW 21:47:30 69° WNW 21:52:49 10° NNE
Helios 1A 4.3 21:43:40 10° SSW 21:47:36 38° W 21:51:33 10° NNW
Meteor 1-29 4.5 21:45:13 10° N 21:48:21 36° WNW 21:51:28 10° SW
YAOGAN 6 2.9 21:50:59 20° S 21:53:15 61° W 21:56:43 10° NNW
USA 245 3.9 21:53:36 23° ENE 21:53:36 23° ENE 21:55:26 10° NNE
Meteor 2-13 Rocket 4.4 21:49:11 10° N 21:55:16 86° W 22:00:15 16° S
YAOGAN 11 4.3 21:56:08 31° SE 21:57:54 51° ENE 22:02:05 10° N
H-2A R/B 3.9 20:50:01 10° W 21:58:12 46° SSW 22:02:51 23° SSE
Cosmos 405 Rocket 4.0 21:58:00 10° SSW 22:01:31 39° WNW 22:05:07 10° N
Cosmos 2184 Rocket 4.2 21:56:53 10° N 22:03:14 74° W 22:08:32 15° S
Cosmos 2074 Rocket 4.2 21:57:02 10° NNW 22:03:15 71° W 22:08:41 14° S
GENESIS II 4.4 22:00:04 10° NNW 22:03:58 57° NE 22:05:05 40° ESE
CZ-3A R/B 0.9 21:59:36 10° SW 22:04:06 49° S 22:04:06 49° S
ERS-1 Rocket 3.1 22:01:30 21° S 22:04:50 75° WSW 22:09:52 10° NNW
Cosmos 1726 Rocket 4.4 22:02:03 10° NNE 22:05:54 31° ENE 22:06:36 29° E
Cosmos 1610 Rocket 4.4 22:00:51 10° N 22:07:09 83° E 22:11:09 24° S
Cosmos 1656 Rocket 4.1 22:03:50 10° NNW 22:09:09 55° WSW 22:12:38 21° S
MetOp-A 4.1 22:07:51 27° SSE 22:10:55 90° WSW 22:16:19 10° NNW
Cosmos 2058 Rocket 4.2 22:08:54 10° NNE 22:12:41 27° ENE 22:13:09 27° E
Meteor 1-23 Rocket 4.1 22:08:09 15° S 22:12:55 88° W 22:18:33 10° N
Cosmos 1441 Rocket 3.7 22:11:25 18° SSW 22:14:03 55° W 22:17:44 10° N
Cosmos 1025 Rocket 2.9 22:12:15 26° S 22:14:36 84° W 22:18:53 10° N
PSLV R/B 3.8 22:11:43 10° WNW 22:14:47 49° N 22:15:28 40° NE
H-2A R/B 2.4 22:14:06 34° ESE 22:15:37 44° ENE 22:20:21 10° N
USA 267 4.1 22:16:50 10° ENE 22:21:19 27° ESE 22:21:19 27° ESE
Meteor 1-15 Rocket 4.1 22:18:30 10° N 22:24:07 83° E 22:26:28 37° SSE
SL-27 R/B 3.9 22:21:39 10° SW 22:25:06 39° WNW 22:28:33 10° N
DMSP B5D2-2 4.4 22:22:38 10° NNE 22:27:41 44° E 22:28:29 41° ESE
MOS 1-B Rocket 4.1 22:27:05 28° S 22:30:10 68° WSW 22:36:21 10° NNW
Cosmos 1624 Rocket 4.1 22:24:56 10° NNW 22:30:12 64° ENE 22:31:37 45° SE
Intercosmos 24 4.0 22:28:03 10° NNW 22:31:54 61° W 22:32:32 50° SW
SL-08 RB Rocket 3.5 22:30:58 52° SSE 22:32:04 89° ENE 22:36:33 10° NNW
Cosmos 962 Rocket 4.4 22:26:04 10° N 22:32:20 74° E 22:34:43 39° SSE
ARGOS 3.3 22:36:34 35° S 22:38:50 67° WSW 22:44:14 10° NNW
CENTAUR R/B 3.8 22:31:18 10° NW 22:38:57 48° WSW 22:43:43 25° S
H-2A R/B 2.9 22:39:03 36° ENE 22:39:18 37° ENE 22:43:28 10° N
Landsat 7 3.9 22:39:26 52° ESE 22:40:08 58° ENE 22:44:48 10° N
Cosmos 405 4.3 22:39:11 10° NNW 22:42:26 33° W 22:43:00 31° WSW
SPOT 5 3.0 22:41:33 43° SSW 22:42:36 55° W 22:46:51 10° NNW
Cosmos 2154 Rocket 4.3 22:40:35 10° NNW 22:46:51 63° W 22:50:03 30° SSW
Cosmos 2056 Rocket 3.3 22:43:45 10° NNW 22:48:57 88° ENE 22:49:51 62° SSE
SL-8 Rocket 4.1 22:44:38 10° N 22:50:50 62° E 22:52:20 49° SE
Tiangong 2 2.6 22:47:56 10° W 22:50:11 35° WNW 22:50:11 35° WNW
Cosmos 2278 3.9 22:45:50 10° NNW 22:51:28 57° ENE 22:52:35 49° ESE
Cosmos 2082 Rocket 2.3 22:51:36 51° ESE 22:51:48 51° ESE 22:57:17 10° NNE
COSMOS 2487 3.8 22:55:03 33° NNE 22:55:03 33° NNE 22:57:10 10° NNE
Cosmos 2366 rocket 4.3 22:48:58 10° N 22:54:55 48° E 22:55:56 44° ESE
Terra 1.9 22:54:57 57° E 22:55:11 57° ENE 22:59:51 10° N
CZ-4B R/B 4.2 22:54:57 10° NNE 22:59:03 39° E 22:59:03 39° E
Cosmos 1437 Rocket 3.7 22:56:39 10° NNW 23:00:14 39° W 23:00:20 39° W
ISS -1.5 23:01:10 10° W 23:03:57 25° NNW 23:06:44 10° NNE
SPOT 1/Viking Rocket 4.1 23:05:33 42° SW 23:06:45 50° W 23:11:46 10° NNW
IGS 5A 3.7 23:09:41 63° NNE 23:09:41 63° NNE 23:13:16 10° N
Cosmos 2369 3.6 23:04:23 10° NNW 23:10:09 82° ENE 23:10:51 69° SE
Timation 2 Rocket 4.3 23:12:40 47° E 23:12:40 47° E 23:18:18 10° NE
Cosmos 1697 Rocket 3.1 23:14:02 10° N 23:19:27 48° ENE 23:19:52 47° ENE
Cosmos 2228 3.5 23:16:48 10° NNW 23:20:38 53° WNW 23:20:38 53° WNW
Cosmos 1452 Rocket 3.5 23:15:58 10° NNW 23:21:14 69° ENE 23:21:14 69° ENE
Cosmos 1959 Rocket 4.4 23:15:14 10° N 23:21:37 89° W 23:22:44 64° S
SL-08 R/B 4.3 23:16:02 10° N 23:22:11 81° E 23:22:55 69° SSE
Cosmos 1602 Rocket 4.1 23:24:52 54° NNE 23:24:52 54° NNE 23:28:15 10° N
deb Chang Zheng 4 4.0 23:22:17 10° N 23:26:07 61° NW 23:26:07 61° NW
Cosmos 921 Rocket 3.8 23:22:36 10° NNW 23:26:30 47° W 23:26:30 47° W
Cosmos 2218 Rocket 3.9 23:25:11 10° N 23:31:20 75° W 23:32:13 64° SSW
Cosmos 1833 Rocket 2.7 23:34:38 64° WSW 23:35:22 73° WNW 23:41:00 10° NNE
Cosmos 1656 3.5 23:33:51 10° NNW 23:39:09 80° W 23:39:09 80° W
Meteor 1-21 4.1 23:44:22 82° NE 23:44:22 82° NE 23:49:55 10° N
CZ-4 R/B 4.3 23:39:52 10° N 23:44:48 59° WNW 23:44:55 59° W
H-2A R/B 3.9 23:54:44 18° W 23:55:15 18° W 23:58:38 10° NW
